Weather Roundup
Issued by NWS Corpus Christi, TX

Home | Current Version | Previous Version | Text Only | Print | Product List | Glossary On
Versions: 1 2 3 4 5 6 7 8 9 10 11 12 13 14 15 16 17 18 19 20 21 22 23 24 25 26 27 28 29 30 31 32 33 34 35 36 37 38 39 40 41 42 43 44 45 46 47 48 49 50
000
ASUS44 KCRP 192210
HRRCRP

SOUTH TEXAS REGIONAL WEATHER ROUNDUP
NATIONAL WEATHER SERVICE CORPUS CHRISTI TX
500 PM CDT THU OCT 19 2017


TXZ229>244-192300-
...CORPUS CHRISTI AREA OBSERVATIONS...

CITY           SKY/WX    TMP DP  RH WIND       PRES   REMARKS
CORPUS CHRISTI CLOUDY    80  66  62 E18       30.01S
NAS CORPUS CHR CLOUDY    80  71  74 NE18      30.02R
ROCKPORT       CLOUDY    78  68  71 NE9       30.02S
KINGSVILLE ARP PTSUNNY   86  69  55 NE12      30.01S HX  90
KINGSVILLE NAS CLOUDY    83  70  64 E15       30.00S
ALICE          CLOUDY    85  61  44 E13       30.01S
$$

...VICTORIA AREA OBSERVATIONS...

CITY           SKY/WX    TMP DP  RH WIND       PRES   REMARKS
PORT LAVACA    CLOUDY    75  64  68 NE8       30.05S
VICTORIA       CLOUDY    78  66  66 E17       30.04S
BEEVILLE       CLOUDY    83  53  35 E12       30.03S
PLEASANTON     MOSUNNY   84  60  44 E5        30.03S
SAN ANTONIO    PTSUNNY   82  60  47 SE12G17   30.04F
$$

...LAREDO AREA OBSERVATIONS...

CITY           SKY/WX    TMP DP  RH WIND       PRES   REMARKS
LAREDO         MOSUNNY   89  62  40 E9        29.98F
COTULLA        MOSUNNY   85  61  44 S14       30.00S
DEL RIO        SUNNY     81  59  47 SE12      29.99F
MCALLEN        SUNNY     88  69  53 NE10      29.97S HX  92
HEBBRONVILLE   PTSUNNY   84  62  47 SE13      30.02S
$$

...OTHER TEXAS OBSERVATIONS...

CITY           SKY/WX    TMP DP  RH WIND       PRES   REMARKS
BROWNSVILLE    SUNNY     87  66  49 NE7       29.98S
HOUSTON        PTSUNNY   81  61  50 SE9       30.07S
COL. STATION   SUNNY     84  57  39 SE13      30.06S
AUSTIN         PTSUNNY   82  60  47 SE6       30.04F
WACO           SUNNY     82  55  39 SE15      30.06S
FORT WORTH     PTSUNNY   83  51  33 SE14      30.05F
WICHITA FALLS  MOSUNNY   78  48  34 S12       30.03S
LUBBOCK        PTSUNNY   74  50  42 S16       30.03S
EL PASO        MOSUNNY   84  49  29 SE9       29.95F
$$

...MARINE OBSERVATIONS...

STATION/POSITION TIME  SKY/WX   TEMP    WIND        PRES    VSBY  WAVE   SWELL
                                AIR SEA DIR/SP/G                  HT/PER HT/PER
                 (UTC)          (F)     (DEG/KT/KT) (MB)    (MI)  (FT/S) (FT/S)
PORT ARANSAS     NOT AVBL
BUOY 90 E PORT A 2150            80 82   50/ 17/ 21 1016.4R         5/ 7   2/ 9
BUOY 200 E PT IS 2150            82 84  110/ 14/ 16 1015.2S         5/ 8   5/ 8
BUOY 15 E GALVES 2150            76 80   60/ 16/ 19 1018.2F         3/ 4   2/ 8
$$




USA.gov is the U.S. government's official web portal to all federal, state and local government web resources and services.